Miscellaneous Local Product
Issued by NWS Hastings, NE

Home | Current Version | Previous Version | Text Only | Print | Product List | Glossary On
Versions: 1 2 3 4 5 6 7 8 9 10 11 12 13 14 15 16 17 18 19 20 21 22 23 24 25 26 27 28 29 30 31 32 33 34 35 36 37 38 39 40 41 42 43 44 45 46 47 48 49 50
033
AXUS43 KGID 010402
MISGRI

GID CWA HOURLY WEATHER ROUNDUP
NATIONAL WEATHER SERVICE HASTINGS NE
1100 PM CDT SAT APR 30 2016

NOTE: "FAIR" INDICATES FEW OR NO CLOUDS BELOW 12,000 FEET WITH NO
SIGNIFICANT WEATHER AND/OR OBSTRUCTIONS TO VISIBILITY.

...SOUTH CENTRAL NEBRASKA...

CITY           SKY/WX    TMP DP  RH WIND       PRES   REMARKS
GRAND ISLAND   LGT RAIN  45  44  97 NE13      29.89R
HASTINGS       LGT RAIN  45  43  93 NW9       29.87R
KEARNEY        CLOUDY    43  39  87 NW10      29.90R
ORD            LGT RAIN  42  39  89 N17       29.94R
YORK           LGT RAIN  46  46 100 NE10      29.87R
AURORA         RAIN      47  47  99 N10       29.88R
LEXINGTON      DRIZZLE   40  37  91 NW13      29.93R WCI  32
HOLDREGE       LGT RAIN  40  38  93 NW8       29.90S WCI  35
HEBRON         CLOUDY    48  46  90 W3        29.87R

...NEBRASKA PANHANDLE...

CITY           SKY/WX    TMP DP  RH WIND       PRES   REMARKS
CHADRON        LGT RAIN  41  37  86 NE7       30.18R
ALLIANCE       MIX PCPN  34  33  96 N17       30.12R WCI  23
SCOTTSBLUFF    LGT RAIN  37  36  96 N12       30.17R WCI  29
SIDNEY         FLURRIES  34  32  92 N24       30.10R WCI  21

...WESTERN AND NORTH CENTRAL NEBRASKA...

CITY           SKY/WX    TMP DP  RH WIND       PRES   REMARKS
VALENTINE      LGT RAIN  39  36  89 NE20G37   30.11R WCI  29
AINSWORTH      RAIN      38  37  94 NE24G31   30.06R WCI  27
ONEILL         LGT RAIN  42  40  95 NE20G26   30.01R
BROKEN BOW     LGT RAIN  41  39  93 N15G24    29.95R
IMPERIAL       CLOUDY    35  33  92 N20       30.03R WCI  24
NORTH PLATTE   LGT RAIN  35  33  92 N18G25    29.99R WCI  24
MCCOOK         CLOUDY    38  34  85 NW14      29.98R WCI  30

...EASTERN NEBRASKA...

CITY           SKY/WX    TMP DP  RH WIND       PRES   REMARKS
NORFOLK        LGT RAIN  43  41  93 NE17      29.93R FOG
SO SIOUX CITY  CLOUDY    46  41  82 NE23G32   29.96R
TEKAMAH        CLOUDY    47  45  93 NE12      29.91R
COLUMBUS       CLOUDY    45  37  76 NE17G24   29.90R
ALBION         LGT RAIN  43  41  93 NE15G23   29.93R
OMAHA EPPLEY   LGT RAIN  49  47  93 E14       29.87R
OFFUTT AFB     CLOUDY    49  49 100 NE7       29.85R FOG
MILLARD        DRIZZLE   49  48  95 CALM      29.86R
LINCOLN        CLOUDY    51  49  92 E9        29.86R
NEBRASKA CITY  CLOUDY    52  52 100 CALM      29.85R
BEATRICE       CLOUDY    50  47  90 W9        29.86R
FALLS CITY     CLOUDY    55  50  83 W3        29.85R

...NORTHERN KANSAS...

CITY           SKY/WX    TMP DP  RH WIND       PRES   REMARKS
GOODLAND       CLOUDY    35  33  92 N25       30.00R WCI  23
HILL CITY      CLOUDY    42  37  82 NW12      29.96R
NORTON         CLOUDY    39  34  81 NW13      29.94  WCI  32
PHILLIPSBURG   CLOUDY    43  37  81 NW5       29.94R
SMITH CENTER   CLOUDY    43  41  93 W12       29.92R
BELOIT         CLOUDY    45  41  87 W7        29.90R
HAYS           CLOUDY    45  32  61 W12       29.94R
RUSSELL        PTCLDY    44  39  82 W12       29.91R
CONCORDIA      CLOUDY    48  42  80 W8        29.89R
SALINA         CLOUDY    51  44  77 W7        29.91R
TOPEKA         MOCLDY    55  46  71 W6        29.87R



USA.gov is the U.S. government's official web portal to all federal, state and local government web resources and services.